This demonstration page uses our WeatherBlox Daily Observations layout. Learn more.

Hourly Observations for January 21, 2020

Temp ( °F °C ) Dew Point ( °F °C ) Humidity (%) Winds ( mph kmh ) Pressure ( in mb ) Visibility ( mi km ) Precip ( " mm )
12:15 am 00:15 Clear 10 -12.4 7 -13.9 89 89 S 7 11 30.69 1039 10 16.0934 0 0
12:35 am 00:35 Clear 10 -12.2 7 -13.7 89 89 S 6 9 30.68 1039 10 16.0934 0 0
12:55 am 00:55 Clear 10 -12.2 8 -13.6 89 89 SSE 7 11 30.66 1038 10 16.0934 0 0
1:15 am 01:15 Clear 10 -12.2 8 -13.6 89 89 SSE 7 11 30.64 1038 10 16.0934 0 0
1:35 am 01:35 Clear 10 -12.2 8 -13.6 89 89 S 7 11 30.65 1038 10 16.0934 0 0
1:55 am 01:55 Clear 10 -12.2 8 -13.6 89 89 S 9 15 30.64 1038 10 16.0934 0 0
2:15 am 02:15 Clear 10 -12.1 8 -13.6 89 89 S 10 17 30.64 1038 10 16.0934 0 0
2:35 am 02:35 Clear 10 -12.1 8 -13.5 89 89 S 10 17 30.64 1038 10 16.0934 0 0
2:55 am 02:55 Clear 10 -12.1 8 -13.5 89 89 S 9 15 30.64 1038 10 16.0934 0 0
3:15 am 03:15 Clear 10 -12.1 8 -13.5 89 89 SSW 12 19 30.64 1038 10 16.0934 0 0
3:35 am 03:35 Clear 10 -12 8 -13.3 90 90 S 9 15 30.62 1037 10 16.0934 0 0
3:55 am 03:55 Clear 10 -12 8 -13.4 89 89 S 9 15 30.6 1036 10 16.0934 0 0
4:15 am 04:15 Clear 10 -12 8 -13.6 88 88 S 8 13 30.59 1036 10 16.0934 0 0
4:35 am 04:35 Clear 10 -12.1 8 -13.5 89 89 S 9 15 30.58 1036 10 16.0934 0 0
4:55 am 04:55 Clear 10 -12.1 8 -13.5 89 89 S 10 17 30.58 1036 10 16.0934 0 0
5:15 am 05:15 Clear 10 -12 8 -13.5 89 89 S 8 13 30.57 1035 10 16.0934 0 0
5:35 am 05:35 Clear 10 -12 8 -13.3 90 90 S 10 17 30.57 1035 10 16.0934 0 0
5:55 am 05:55 Clear 11 -11.7 8 -13.1 89 89 S 12 19 30.55 1035 10 16.0934 0 0
6:15 am 06:15 Clear 11 -11.5 9 -13 89 89 S 12 19 30.54 1034 10 16.0934 0 0
6:35 am 06:35 Clear 11 -11.5 9 -12.8 90 90 S 10 17 30.52 1034 10 16.0934 0 0
6:55 am 06:55 Clear 12 -11.3 9 -12.6 90 90 S 10 17 30.51 1033 10 16.0934 0 0
7:15 am 07:15 Clear 12 -11.3 9 -12.6 90 90 S 12 19 30.51 1033 10 16.0934 0 0
7:35 am 07:35 Clear 12 -11.3 10 -12.5 91 91 S 9 15 30.51 1033 10 16.0934 0 0
7:55 am 07:55 Clear 12 -11 10 -12.1 92 92 S 10 17 30.51 1033 10 16.0934 0 0
8:15 am 08:15 Sunny 13 -10.8 11 -11.8 92 92 S 10 17 30.48 1032 10 16.0934 0 0
8:35 am 08:35 Sunny 13 -10.6 11 -11.6 92 92 S 13 20 30.47 1032 10 16.0934 0 0
8:55 am 08:55 Sunny 14 -10 12 -11 92 92 S 14 22 30.47 1032 10 16.0934 0 0
9:15 am 09:15 Sunny 15 -9.3 13 -10.3 93 93 S 14 22 30.46 1031 10 16.0934 0 0
9:35 am 09:35 Sunny 17 -8.5 15 -9.7 91 91 S 12 19 30.45 1031 10 16.0934 0 0
9:55 am 09:55 Sunny 18 -7.8 15 -9.3 89 89 S 20 31 30.42 1030 10 16.0934 0 0
10:15 am 10:15 Sunny 19 -7.3 16 -8.8 89 89 S 13 20 30.41 1030 10 16.0934 0 0
10:35 am 10:35 Sunny 20 -6.5 17 -8.2 88 88 S 16 26 30.39 1029 10 16.0934 0 0
10:55 am 10:55 Sunny 22 -5.6 18 -7.6 86 86 S 18 30 30.37 1028 10 16.0934 0 0
11:15 am 11:15 Sunny 23 -5 19 -7.4 83 83 S 21 33 30.36 1028 10 16.0934 0 0
11:35 am 11:35 Sunny 24 -4.6 19 -7 84 84 S 16 26 30.34 1027 10 16.0934 0 0
11:55 am 11:55 Sunny 25 -4.1 20 -6.6 83 83 S 16 26 30.33 1027 10 16.0934 0 0
12:15 pm 12:15 Sunny 25 -3.9 20 -6.6 82 82 S 22 35 30.29 1026 10 16.0934 0 0
12:35 pm 12:35 Sunny 25 -3.8 21 -6.2 84 84 S 21 33 30.28 1025 10 16.0934 0 0
12:55 pm 12:55 Sunny 26 -3.2 22 -5.7 83 83 S 22 35 30.26 1025 10 16.0934 0 0
1:15 pm 13:15 Partly Cloudy 27 -2.6 23 -5.2 83 83 S 17 28 30.22 1023 10 16.0934 0 0
1:35 pm 13:35 Partly Cloudy 29 -1.7 24 -4.6 81 81 S 17 28 30.2 1023 10 16.0934 0 0
1:55 pm 13:55 Sunny 29 -1.4 24 -4.3 81 81 S 18 30 30.18 1022 10 16.0934 0 0
2:15 pm 14:15 Sunny 30 -1.3 25 -4.1 81 81 S 16 26 30.17 1022 10 16.0934 0 0
2:35 pm 14:35 Sunny 31 -0.3 26 -3.3 80 80 S 16 26 30.15 1021 10 16.0934 0 0
2:55 pm 14:55 Sunny 32 0 26 -3.2 79 79 S 16 26 30.12 1020 10 16.0934 0 0
3:15 pm 15:15 Mostly Cloudy 32 0 26 -3.3 79 79 S 18 30 30.1 1019 10 16.0934 0 0
3:35 pm 15:35 Partly Cloudy 32 0 26 -3.3 79 79 S 17 28 30.1 1019 10 16.0934 0 0
3:55 pm 15:55 Partly Cloudy 32 0 26 -3.2 79 79 S 14 22 30.1 1019 10 16.0934 0 0
4:15 pm 16:15 Partly Cloudy 32 0 27 -3 80 80 S 14 22 30.09 1019 10 16.0934 0 0
4:35 pm 16:35 Mostly Cloudy 33 0.3 27 -2.8 80 80 S 15 24 30.09 1019 10 16.0934 0 0
4:55 pm 16:55 Mostly Cloudy 33 0.5 27 -2.6 80 80 S 15 24 30.08 1019 10 16.0934 0 0
5:15 pm 17:15 Cloudy 33 0.7 27 -2.7 78 78 S 15 24 30.08 1019 10 16.0934 0 0
5:35 pm 17:35 Mostly Cloudy with Light Drizzle 33 0.7 28 -2.5 79 79 S 14 22 30.08 1019 10 16.0934 0 0
5:55 pm 17:55 Cloudy with Light Rain 33 0.6 28 -2 83 83 S 13 20 30.07 1018 10 16.0934 0 0
6:15 pm 18:15 Cloudy with Light Wintry Mix 33 0.5 29 -1.5 87 87 S 16 26 30.06 1018 10 16.0934 0 0
6:35 pm 18:35 Cloudy 33 0.5 30 -1.1 89 89 S 20 31 30.05 1018 10 16.0934 0 0
6:55 pm 18:55 Cloudy with Light Wintry Mix 33 0.6 31 -0.5 92 92 S 21 33 30.05 1018 7 11.26538 0 0
7:15 pm 19:15 Cloudy with Light Wintry Mix 33 0.6 31 -0.5 92 92 S 20 31 30.05 1018 10 16.0934 0 0
7:35 pm 19:35 Cloudy with Light Wintry Mix 33 0.5 32 -0.2 95 95 S 17 28 30.05 1018 7 11.26538 0 0
7:55 pm 19:55 Cloudy with Light Wintry Mix 33 0.5 32 -0.1 96 96 S 15 24 30.04 1017 4 6.43736 0.03 0.762
8:15 pm 20:15 Cloudy with Light Snow 33 0.5 32 0 96 96 S 16 26 30.03 1017 4 6.43736 0.03 0.762
8:35 pm 20:35 Cloudy with Light Snow 33 0.5 32 0 96 96 S 17 28 30.02 1017 4 6.43736 0.06 1.524
8:55 pm 20:55 Cloudy with Light Wintry Mix 33 0.3 32 0 98 98 S 16 26 30.01 1016 4 6.43736 0.08 2.032
9:15 pm 21:15 Cloudy with Light Wintry Mix 33 0.3 32 0 98 98 S 14 22 30.01 1016 5 8.0467 0.01 0.254
9:35 pm 21:35 Cloudy with Light Wintry Mix 33 0.4 32 0 97 97 S 14 22 30.02 1017 5 8.0467 0.02 0.508
9:55 pm 21:55 Cloudy with Light Wintry Mix 33 0.4 32 0 97 97 S 12 19 30.01 1016 5 8.0467 0.03 0.762
10:15 pm 22:15 Cloudy with Light Wintry Mix 33 0.5 32 0.1 97 97 S 12 19 30 1016 7 11.26538 0 0
10:35 pm 22:35 Cloudy 33 0.5 32 0 96 96 S 9 15 30 1016 10 16.0934 0 0
10:55 pm 22:55 Cloudy 33 0.5 32 0.1 97 97 S 10 17 29.99 1016 7 11.26538 0 0
11:15 pm 23:15 Cloudy with Light Wintry Mix 33 0.5 32 0.2 98 98 S 9 15 29.98 1015 7 11.26538 0 0
11:35 pm 23:35 Cloudy with Light Wintry Mix 33 0.5 32 0.2 98 98 S 10 17 29.98 1015 7 11.26538 0 0
11:55 pm 23:55 Cloudy with Light Wintry Mix 33 0.5 33 0.5 100 100 S 9 15 29.98 1015 7 11.26538 0 0

Powered by AerisWeather